Home   Weather   Seeb   Past weeks

Flag for Oman Past Weather in Seeb, Oman — Yesterday and Last 2 Weeks

Now
72 °F

Clear.


Feels Like: 69 °F
Forecast: 70 / 77 °F
Wind: 6 mph from Southwest

Location: International Airport

Current Time: Dec 6, 2016 at 4:49:16 am

Latest Report: Dec 6, 2016 at 3:50 am


Visibility: 5 mi

Pressure: 29.98 "Hg

Humidity: 88%

Dew Point: 68 °F

Location of SeebLocation

Past Weather in Seeb — Graph

°F

Seeb Temperature Yesterday

Maximum temperature yesterday: 84 °F (at 1:50 pm)
Minimum temperature yesterday: 70 °F (at 5:50 am)
Average temperature yesterday: 76 °F

High & Low Weather Summary for the Past Weeks

 TemperatureHumidityPressure
High88 °F (Dec 4, 10:50 am)94% (Dec 4, 9:50 pm)30.12 "Hg (Dec 4, 9:50 pm)
Low66 °F (Nov 26, 3:50 am)35% (Nov 28, 12:50 pm)29.86 "Hg (Nov 21, 2:50 am)
Average76 °F65%30.01 "Hg
* Reported Nov 21 2:50 am — Dec 6 2:50 am, Seeb, Weather by CustomWeather, © 2016

Note: Actual official high and low records may vary slightly from our data, if they occured in-between our weather recording intervals... More about our weather records

Advertising

Seeb Weather History for the Previous 24 Hours

Scroll right to see more
 ConditionsComfort  
Time TempWeatherWind HumidityBarometerVisibility
2:50 am
Tue, Dec 6
73 °FClear.3 mph89%29.98 "Hg5 mi
1:50 am72 °FClear.3 mph88%29.98 "Hg5 mi
12:50 am72 °FClear.2 mph88%29.98 "Hg6 mi
11:50 pm
Mon, Dec 5
73 °FClear.6 mph89%29.98 "Hg6 mi
10:50 pm73 °FClear.1 mph83%30.01 "Hg6 mi
9:50 pm75 °FClear.1 mph83%30.01 "Hg6 mi
8:50 pm75 °FClear.No wind89%30.01 "Hg6 mi
7:50 pm77 °FClear.3 mph79%30.04 "Hg6 mi
6:50 pm77 °FClear.5 mph79%30.01 "Hg5 mi
5:50 pm79 °FClear.5 mph74%30.01 "Hg5 mi
4:50 pm79 °FDuststorm.7 mph74%29.98 "Hg4 mi
3:50 pm81 °FClear.7 mph70%29.98 "Hg4 mi
2:50 pm81 °FClear.9 mph74%29.98 "Hg4 mi
1:50 pm84 °FClear.6 mph62%29.98 "Hg5 mi
12:50 pm82 °FClear.6 mph66%30.01 "Hg5 mi
11:50 am81 °FClear.5 mph70%30.04 "Hg6 mi
10:50 am81 °FScattered clouds.3 mph70%30.07 "Hg5 mi
9:50 am79 °FPartly sunny.2 mph79%30.09 "Hg4 mi
8:50 am77 °FScattered clouds.5 mph83%30.09 "Hg3 mi
7:50 am75 °FFog.3 mph83%30.07 "Hg2 mi
6:50 am70 °FFog.6 mph88%30.04 "Hg2 mi
5:50 am70 °FFog.5 mph94%30.04 "Hg2 mi
4:50 am72 °FClear.5 mph88%30.01 "Hg4 mi
Weather by CustomWeather, © 2016

See weather overviewHow to use our weather pages